Location: Newark
(53.4333°N, 36.0000°E)
Time: 12:03:36
(UTC+00:00)

ISS - Pass Details

Date: 27 September 2019
Orbit: 411 x 421 km, 51.6° (Epoch: 19 October)

Event Time Altitude Azimuth Distance (km) Brightness Sun altitude
Rises 18:34:41 0° 276° (W) 2,347 0.9 -27.3°
Reaches altitude 10° 18:36:48 10° 271° (W) 1,484 -0.4 -27.6°
Enters shadow 18:37:22 14° 268° (W) 1,267 -0.8 -27.6°
